Shelton, WA
on Sunday, November 25, 2012

Sunday
Previous Day Next Day
Daily Summary
 ActualAverage (KOLM)Record (KOLM)
Temperature
Mean Temperature °F 41°F  
Max Temperature 48°F 48°F 59°F (1949)
Min Temperature 28°F 35°F 13°F (1993)
Degree Days
Heating Degree Days 27 24  
Month to date heating degree days 528  
Since 1 July heating degree days 1322  
Cooling Degree Days 0 0  
Month to date cooling degree days 0  
Year to date cooling degree days 106  
Growing Degree Days0 (Base °F )  
Moisture
Dew Point 36°F   
Average Humidity 93    
Maximum Humidity 100    
Minimum Humidity 66    
Precipitation
Precipitation 0.00 in 0.30 in 3.06 in (1998)
Month to date precipitation 7.13  
Year to date precipitation 41.04  
Wind
Wind Speed 1 mph   
Max Wind Speed 9 mph   
Max Gust Speed mph   
Visibility 7 miles   
Events     

Key: T is trace of precipitation, MM is missing value
Source: NWS Daily Summary
Time(PST)TemperatureDew PointHumidity Pressure Visibility Wind DirectionWind SpeedGust SpeedPrecipitationEvents Conditions
12:53 AM 36.0°F 36.0°F 100% 30.26 in 10.0 miles Calm Calm - N/A   Overcast
1:49 AM 35.6°F 35.6°F 100% 30.26 in 10.0 miles SW 3.5 mph - N/A   Overcast
1:53 AM 35.1°F 35.1°F 100% 30.27 in 10.0 miles WSW 3.5 mph - N/A   Overcast
2:19 AM 35.6°F 35.6°F 100% 30.26 in 10.0 miles Calm Calm - N/A   Overcast
2:53 AM 36.0°F 36.0°F 100% 30.28 in 10.0 miles Calm Calm - N/A   Mostly Cloudy
3:10 AM 35.6°F 35.6°F 100% 30.28 in 10.0 miles North 4.6 mph - N/A   Overcast
3:53 AM 36.0°F 36.0°F 100% 30.28 in 10.0 miles Calm Calm - N/A   Overcast
4:53 AM 36.0°F 36.0°F 100% 30.30 in 10.0 miles Calm Calm - N/A   Overcast
5:41 AM 35.6°F 35.6°F 100% 30.28 in 10.0 miles Calm Calm - N/A   Mostly Cloudy
5:53 AM 36.0°F 35.1°F 97% 30.30 in 10.0 miles Calm Calm - N/A   Overcast
6:01 AM 35.6°F 35.6°F 100% 30.28 in 10.0 miles Calm Calm - N/A   Overcast
6:13 AM 35.6°F 33.8°F 93% 30.28 in 10.0 miles Calm Calm - N/A   Overcast
6:38 AM 35.6°F 35.6°F 100% 30.28 in 2.5 miles Calm Calm - N/A   Overcast
6:49 AM 35.6°F 35.6°F 100% 30.29 in 5.0 miles Calm Calm - N/A   Overcast
6:53 AM 35.1°F 35.1°F 100% 30.31 in 6.0 miles Calm Calm - N/A   Overcast
7:01 AM 35.6°F 35.6°F 100% 30.29 in 8.0 miles Calm Calm - N/A   Overcast
7:23 AM 35.6°F 35.6°F 100% 30.29 in 2.0 miles Calm Calm - N/A   Overcast
7:32 AM 35.6°F 35.6°F 100% 30.29 in 1.5 miles Calm Calm - N/A   Overcast
7:43 AM 35.6°F 35.6°F 100% 30.29 in 1.2 miles Calm Calm - N/A   Overcast
7:49 AM 35.6°F 35.6°F 100% 30.29 in 1.0 miles Calm Calm - N/A   Overcast
7:53 AM 36.0°F 36.0°F 100% 30.31 in 1.0 miles Calm Calm - N/A   Overcast
8:12 AM 37.4°F 37.4°F 100% 30.30 in 2.0 miles Calm Calm - N/A   Overcast
8:21 AM 37.4°F 37.4°F 100% 30.30 in 7.0 miles Calm Calm - N/A   Overcast
8:53 AM 39.0°F 39.0°F 100% 30.32 in 10.0 miles Calm Calm - N/A   Mostly Cloudy
9:25 AM 39.2°F 39.2°F 100% 30.31 in 10.0 miles NNW 3.5 mph - N/A   Mostly Cloudy
9:33 AM 39.2°F 39.2°F 100% 30.31 in 8.0 miles NW 3.5 mph - N/A   Mostly Cloudy
9:53 AM 41.0°F 41.0°F 100% 30.33 in 10.0 miles Variable 4.6 mph - N/A   Overcast
10:18 AM 42.8°F 41.0°F 93% 30.32 in 10.0 miles NNW 3.5 mph - N/A   Mostly Cloudy
10:37 AM 44.6°F 39.2°F 81% 30.32 in 10.0 miles NNE 3.5 mph - N/A   Scattered Clouds
10:53 AM 45.0°F 39.9°F 82% 30.33 in 10.0 miles Variable 3.5 mph - N/A   Clear
11:20 AM 46.4°F 39.2°F 76% 30.31 in 10.0 miles Variable 3.5 mph - N/A   Mostly Cloudy
11:27 AM 46.4°F 39.2°F 76% 30.31 in 10.0 miles Calm Calm - N/A   Mostly Cloudy
11:39 AM 46.4°F 37.4°F 71% 30.30 in 10.0 miles NE 6.9 mph - N/A   Partly Cloudy
11:53 AM 48.0°F 37.9°F 68% 30.31 in 10.0 miles NE 4.6 mph - N/A   Partly Cloudy
12:35 PM 48.2°F 37.4°F 66% 30.29 in 10.0 miles Variable 4.6 mph - N/A   Mostly Cloudy
12:51 PM 48.2°F 37.4°F 66% 30.28 in 10.0 miles NNE 9.2 mph - N/A   Scattered Clouds
12:53 PM 48.0°F 37.0°F 66% 30.29 in 10.0 miles North 8.1 mph - N/A   Partly Cloudy
1:53 PM 48.0°F 37.0°F 66% 30.29 in 10.0 miles NE 5.8 mph - N/A   Partly Cloudy
2:53 PM 46.0°F 37.9°F 73% 30.28 in 10.0 miles ENE 6.9 mph - N/A   Clear
3:53 PM 44.1°F 37.9°F 79% 30.28 in 10.0 miles Calm Calm - N/A   Clear
4:53 PM 42.1°F 37.9°F 85% 30.28 in 10.0 miles Calm Calm - N/A   Clear
5:53 PM 37.0°F 36.0°F 96% 30.26 in 10.0 miles Calm Calm - N/A   Clear
6:53 PM 35.1°F 35.1°F 100% 30.26 in 10.0 miles Calm Calm - N/A   Clear
7:53 PM 32.0°F 32.0°F 100% 30.25 in 4.0 miles Calm Calm - N/A   Clear
8:53 PM 33.1°F 33.1°F 100% 30.23 in 10.0 miles Calm Calm - N/A   Clear
9:53 PM 28.9°F 28.9°F 100% 30.22 in 5.0 miles Calm Calm - N/A   Partly Cloudy
10:00 PM 28.4°F 28.4°F 100% 30.20 in 1.8 miles Calm Calm - N/A   Partly Cloudy
10:18 PM 28.4°F 28.4°F 100% 30.19 in 2.0 miles Calm Calm - N/A   Scattered Clouds
10:25 PM 28.4°F 28.4°F 100% 30.19 in 1.8 miles Calm Calm - N/A   Mostly Cloudy
10:51 PM 28.4°F 28.4°F 100% 30.19 in 2.0 miles Calm Calm - N/A   Scattered Clouds
10:53 PM 28.0°F 28.0°F 100% 30.21 in 3.0 miles Calm Calm - N/A   Scattered Clouds
11:53 PM 28.9°F 28.9°F 100% 30.21 in 2.5 miles Calm Calm - N/A   Clear
Moon Phase
Nov. 25 Nov. 28 Dec. 06 Dec. 13 Dec. 20
Sunrise:07:31 AM (PST) Moon Rise:02:54 PM (PST)11/25
Sunset:04:27 PM (PST) Moon Set:04:43 AM (PST)11/25

Copyright © 2014 The Weather Underground, Inc.